User: anonymous   Login
Location: Unspecified
(0.0000°N, 0.0000°E)
Time: 02:04:14
(UTC+00:00)
Language:

NOAA 17 - Orbit

View from above orbital plane
View from above orbital plane
View from above satellite
View from above satellite

Ground track
Ground track

The orbit data is extracted from the following two-line orbital elements,

1 27453U 02032A   17081.89692970 -.00000002 +00000-0 +17106-4 0  9997
2 27453 098.4243 049.7886 0012925 092.1614 268.1046 14.24979955766468
Epoch (UTC): 22 March 2017 21:31:34
Eccentricity: 0.0012925
inclination: 98.4243°
perigee height: 799 km
apogee height: 818 km
right ascension of ascending node: 49.7886°
argument of perigee: 92.1614°
revolutions per day: 14.24979955
mean anomaly at epoch: 268.1046°
orbit number at epoch: 76646

The dashed part of the orbit path shows where the satellite is in the earth's shadow,  

DLR